SCP
0 0 0 0 0 0 0 0 0 0 0 0 0 0 0 0 0 0 0 0 0 0
0 0 0 0 0 0 0 0 0 0 0 0 0 0 0 0 0 0 0 0 0 0
0 0 0 0 0 0 0 0 0 0 0 0 0 0 0 0 0 0 0 0 0 0
0 0 0 0 0 0 0 0 0 0 0 0 0 0 0 0 0 0 0 0 0 0
0 0 0 0 0 0 0 0 0 0 0 0 0 0 0 0 0 0 0 0 0 0
0 0 0 0 0 0 0 0 0 0 0 0 0 0 0 0 0 0 0 0 0 0
0 0 0 0 0 0 0 0 0 0 0 0 0 0 0 0 0 0 0 0 0 0
0 0 0 0 0 0 0 0 0 0 0 0 0 0 0 0 0 0 0 0 0 0
0 0 0 0 0 0 0 0 0 0 0 0 0 0 0 0 0 0 0 0 0 0
0 0 0 0 0 0 0 0 0 0 0 0 0 0 0 0 0 0 0 0 0 0
0 0 0 0 0 0 0 0 0 0 0 0 0 0 0 0 0 0 0 0 0 0
0 0 0 0 0 0 0 0 0 0 0 0 0 0 0 0 0 0 0 0 0 0
0 0 0 0 0 0 0 0 0 0 0 0 0 0 0 0 0 0 0 0 0 0
0 0 0 0 0 0 0 0 0 0 0 0 0 0 0 0 0 0 0 0 0 0
Wind_Speed_500mb
53 55 56 54 54 51 50 50 46 51 52 55 50 49 50 46 46 47 48 49 48 44
46 45 45 46 46 47 45 43 42 43 45 52 55 55 45 46 39 43 49 46 46 44
34 37 40 42 44 46 48 45 42 45 42 42 41 46 39 39 36 43 49 49 43 41
27 26 28 30 32 35 36 37 39 41 40 35 40 35 38 37 34 43 41 42 37 40
23 25 26 27 28 28 26 27 24 22 23 29 29 32 31 36 41 38 30 33 32 25
20 21 21 20 18 17 17 17 15 19 22 24 27 30 37 38 32 29 29 31 27 25
23 22 20 19 18 16 15 15 17 20 22 24 27 33 28 28 22 27 26 24 21 17
22 22 20 18 19 19 18 19 21 21 20 22 22 21 19 21 25 20 18 15 12 9
25 22 21 20 20 19 17 16 17 19 19 23 24 26 24 24 20 19 17 12 10 10
27 25 22 20 20 21 19 19 18 18 19 20 21 23 24 20 16 15 14 12 11 8
27 26 23 21 20 20 20 20 19 20 21 22 23 21 19 19 17 17 15 11 9 18
26 24 22 21 20 21 22 23 22 21 22 22 23 22 23 23 23 21 13 16 20 27
23 22 22 23 22 22 23 24 24 24 25 25 25 27 28 27 27 17 17 22 30 34
25 24 24 24 25 26 28 28 27 27 28 29 30 32 31 31 25 20 25 34 37 33
Wind_Direction_500mb
238 239 243 247 251 254 259 259 258 258 252 253 257 259 258 260 263 272 277 274 278 283
236 241 246 249 254 257 256 254 250 250 252 249 253 253 255 258 256 273 276 269 272 269
235 243 250 254 257 259 259 254 253 250 250 248 244 246 247 247 264 272 272 273 272 259
230 239 246 250 251 251 251 248 247 252 248 235 233 243 251 249 258 267 271 259 266 271
227 234 239 241 240 239 240 241 233 226 236 236 238 242 243 247 259 261 265 262 255 244
228 233 239 242 240 232 225 223 222 226 233 240 245 248 255 250 253 253 246 249 245 239
221 224 231 236 230 219 214 223 228 236 240 247 245 251 243 214 230 245 241 233 240 250
223 223 224 229 236 223 218 223 228 232 237 238 235 213 232 250 253 244 247 255 253 246
230 230 229 231 233 229 230 218 225 228 237 244 248 256 262 261 252 249 238 225 209 185
230 226 228 231 229 231 219 222 225 231 238 244 250 250 250 239 220 206 194 189 192 198
231 231 232 232 234 234 231 231 231 233 239 236 227 219 208 203 197 188 185 184 250 279
230 230 232 235 237 237 236 234 233 234 231 227 220 210 202 194 191 189 212 269 277 291
231 230 231 230 232 234 234 234 231 227 223 218 214 208 201 201 194 227 264 284 287 280
223 224 227 230 230 232 231 229 226 225 224 218 213 208 210 205 223 264 285 286 275 268
Wind_Speed_850mb
53 55 56 54 54 51 50 50 46 51 52 55 50 49 50 46 46 47 48 49 48 44
46 45 45 46 46 47 45 43 42 43 45 52 55 55 45 46 39 43 49 46 46 44
34 37 40 42 44 46 48 45 42 45 42 42 41 46 39 39 36 43 49 49 43 41
27 26 28 30 32 35 36 37 39 41 40 35 40 35 38 37 34 43 41 42 37 40
23 25 26 27 28 28 26 27 24 22 23 29 29 32 31 36 41 38 30 33 32 25
20 21 21 20 18 17 17 17 15 19 22 24 27 30 37 38 32 29 29 31 27 25
23 22 20 19 18 16 15 15 17 20 22 24 27 33 28 28 22 27 26 24 21 17
22 22 20 18 19 19 18 19 21 21 20 22 22 21 19 21 25 20 18 15 12 9
25 22 21 20 20 19 17 16 17 19 19 23 24 26 24 24 20 19 17 12 10 10
27 25 22 20 20 21 19 19 18 18 19 20 21 23 24 20 16 15 14 12 11 8
27 26 23 21 20 20 20 20 19 20 21 22 23 21 19 19 17 17 15 11 9 18
26 24 22 21 20 21 22 23 22 21 22 22 23 22 23 23 23 21 13 16 20 27
23 22 22 23 22 22 23 24 24 24 25 25 25 27 28 27 27 17 17 22 30 34
25 24 24 24 25 26 28 28 27 27 28 29 30 32 31 31 25 20 25 34 37 33
Wind_Direction_850mb
238 239 243 247 251 254 259 259 258 258 252 253 257 259 258 260 263 272 277 274 278 283
236 241 246 249 254 257 256 254 250 250 252 249 253 253 255 258 256 273 276 269 272 269
235 243 250 254 257 259 259 254 253 250 250 248 244 246 247 247 264 272 272 273 272 259
230 239 246 250 251 251 251 248 247 252 248 235 233 243 251 249 258 267 271 259 266 271
227 234 239 241 240 239 240 241 233 226 236 236 238 242 243 247 259 261 265 262 255 244
228 233 239 242 240 232 225 223 222 226 233 240 245 248 255 250 253 253 246 249 245 239
221 224 231 236 230 219 214 223 228 236 240 247 245 251 243 214 230 245 241 233 240 250
223 223 224 229 236 223 218 223 228 232 237 238 235 213 232 250 253 244 247 255 253 246
230 230 229 231 233 229 230 218 225 228 237 244 248 256 262 261 252 249 238 225 209 185
230 226 228 231 229 231 219 222 225 231 238 244 250 250 250 239 220 206 194 189 192 198
231 231 232 232 234 234 231 231 231 233 239 236 227 219 208 203 197 188 185 184 250 279
230 230 232 235 237 237 236 234 233 234 231 227 220 210 202 194 191 189 212 269 277 291
231 230 231 230 232 234 234 234 231 227 223 218 214 208 201 201 194 227 264 284 287 280
223 224 227 230 230 232 231 229 226 225 224 218 213 208 210 205 223 264 285 286 275 268